Location: ????????
(48.4751°N, 37.6926°E)
Time: 13:12:29
(UTC+00:00)

Okean-O - Pass Details

Date: 20 January 2021
Orbit: 638 x 641 km, 98.2° (Epoch: 27 February)

Event Time Altitude Azimuth Distance (km) Brightness Sun altitude
Rises 14:53:29 0° 127° (SE) 2,940 5.7 -7.4°
Reaches altitude 10° 14:56:04 10° 112° (ESE) 2,035 4.8 -7.8°
Maximum altitude 14:59:27 22° 62° (ENE) 1,414 3.8 -8.3°
Drops below altitude 10° 15:02:50 10° 12° (NNE) 2,046 4.9 -8.9°
Sets 15:05:26 0° 358° (N) 2,961 5.9 -9.3°
